TimeEST,TemperatureF,Dew PointF,Humidity,Sea Level PressureIn,VisibilityMPH,Wind Direction,Wind SpeedMPH,Gust SpeedMPH,PrecipitationIn,Events,Conditions,WindDirDegrees,DateUTC
12:00 AM,57.9,52.3,82,29.70,-9999.0,SW,12.7,19.6,N/A,,Unknown,230,2013-11-07 05:00:00
1:00 AM,60,52,67,29.69,,SW,15.0,,,,,230,2013-11-07 06:00:00
1:00 AM,60.3,52.0,74,29.69,-9999.0,SW,15.0,24.2,N/A,,Unknown,230,2013-11-07 06:00:00
2:00 AM,61.0,52.5,74,29.68,-9999.0,SW,16.1,26.5,N/A,,Unknown,230,2013-11-07 07:00:00
3:00 AM,60.3,52.7,76,29.66,-9999.0,SW,17.3,27.6,N/A,,Unknown,230,2013-11-07 08:00:00
4:00 AM,57.9,54.0,87,29.65,-9999.0,SW,16.1,28.8,N/A,,Unknown,230,2013-11-07 09:00:00
5:00 AM,56.5,54.1,92,29.65,-9999.0,SW,13.8,23.0,N/A,,Unknown,230,2013-11-07 10:00:00
6:00 AM,55.6,54.0,94,29.65,-9999.0,WSW,13.8,24.2,N/A,,Unknown,250,2013-11-07 11:00:00
7:00 AM,51,49,88,29.70,,West,11.5,,,,,260,2013-11-07 12:00:00
7:00 AM,50.9,48.6,92,29.70,-9999.0,West,11.5,-,0.05,,Unknown,260,2013-11-07 12:00:00
8:00 AM,48.4,44.4,86,29.75,-9999.0,West,11.5,17.3,N/A,,Unknown,260,2013-11-07 13:00:00
9:00 AM,45.1,39.7,81,29.80,-9999.0,WNW,12.7,20.7,N/A,,Unknown,290,2013-11-07 14:00:00
10:00 AM,43.7,36.3,75,29.80,-9999.0,WNW,11.5,19.6,N/A,,Unknown,290,2013-11-07 15:00:00
11:00 AM,44.2,34.5,69,29.83,-9999.0,WNW,15.0,23.0,N/A,,Unknown,290,2013-11-07 16:00:00
12:00 PM,44.4,34.3,68,29.83,-9999.0,WNW,10.4,-,N/A,,Unknown,290,2013-11-07 17:00:00
1:00 PM,44,34,57,29.83,,West,11.5,,,,,270,2013-11-07 18:00:00
1:00 PM,43.5,33.8,69,29.83,-9999.0,West,11.5,18.4,N/A,,Unknown,270,2013-11-07 18:00:00
2:00 PM,42.4,31.5,65,29.83,-9999.0,West,12.7,21.9,N/A,,Unknown,280,2013-11-07 19:00:00
3:00 PM,41.5,31.1,66,29.84,-9999.0,WNW,10.4,-,N/A,,Unknown,290,2013-11-07 20:00:00
4:00 PM,39.9,29.3,66,29.85,-9999.0,WNW,10.4,18.4,N/A,,Unknown,300,2013-11-07 21:00:00
5:00 PM,39.6,28.6,65,29.86,-9999.0,WNW,9.2,-,N/A,,Unknown,290,2013-11-07 22:00:00
6:00 PM,39.2,28.0,64,29.88,-9999.0,West,9.2,-,N/A,,Unknown,280,2013-11-07 23:00:00
7:00 PM,39,26,47,29.89,,West,8.1,,,,,280,2013-11-08 00:00:00
7:00 PM,38.7,25.9,60,29.89,-9999.0,West,8.1,-,N/A,,Unknown,280,2013-11-08 00:00:00
8:00 PM,38.1,25.3,60,29.89,-9999.0,West,8.1,-,N/A,,Unknown,270,2013-11-08 01:00:00
9:00 PM,38.3,25.5,60,29.89,-9999.0,West,8.1,-,N/A,,Unknown,260,2013-11-08 02:00:00
10:00 PM,34.7,26.6,72,29.88,-9999.0,WSW,4.6,-,N/A,,Unknown,240,2013-11-08 03:00:00
11:00 PM,35.4,27.3,72,29.87,-9999.0,WSW,6.9,-,N/A,,Unknown,240,2013-11-08 04:00:00